STARLINK-36115

Last updated on Fri Dec 19 2025 00:02:08 GMT+0000 (Coordinated Universal Time)

1 66946U 25286X 25352.58336806 -.01417135 00000+0 -74397-2 0 9995 2 66946 53.1552 20.9819 0001020 67.1157 82.3036 15.82622906 2930
UTC large
Height (km)
Speed (km/s)
/
Latitude / Longitude
Inclination (degrees)
Orbital Period (minutes)
Azimuth
Elevation
Range (km)
Doppler Factor

Next 0 passes for location: London (51.5072 / 0.1276)

Sorry there are no passes over London.